QPF
0.03 0.03 0.04 0.03 0.04 0.04 0.03 0.02 0.01 0.01 0.01 0.01 0.01 0.01 0.01 0.00 0.00 0.01 0.02 0.01 0.01 0.02 0.02 0.01 0.01 0.02 0.02 0.03 0.03 0.04 0.05 0.05 0.04 0.03 0.02 0.01 0.01 0.01 0.01 0.01 0.00 0.01 0.01
0.03 0.03 0.02 0.02 0.03 0.03 0.03 0.02 0.02 0.02 0.02 0.02 0.02 0.01 0.01 0.00 0.00 0.01 0.02 0.02 0.02 0.03 0.03 0.02 0.01 0.01 0.02 0.02 0.03 0.04 0.04 0.04 0.04 0.03 0.02 0.01 0.00 0.00 0.00 0.01 0.00 0.01 0.01
0.02 0.03 0.03 0.04 0.04 0.03 0.04 0.04 0.04 0.03 0.03 0.03 0.03 0.03 0.02 0.02 0.02 0.02 0.02 0.02 0.03 0.03 0.03 0.03 0.02 0.01 0.01 0.01 0.02 0.03 0.04 0.04 0.03 0.02 0.01 0.01 0.01 0.00 0.00 0.00 0.00 0.01 0.01
0.01 0.02 0.03 0.03 0.05 0.05 0.05 0.06 0.06 0.06 0.06 0.05 0.05 0.06 0.06 0.06 0.06 0.05 0.03 0.02 0.03 0.02 0.03 0.03 0.02 0.01 0.00 0.00 0.01 0.02 0.02 0.03 0.03 0.02 0.02 0.01 0.00 0.00 0.00 0.00 0.00 0.00 0.01
0.01 0.01 0.02 0.02 0.03 0.05 0.07 0.08 0.09 0.09 0.09 0.09 0.10 0.10 0.10 0.08 0.06 0.06 0.04 0.02 0.02 0.02 0.03 0.04 0.02 0.01 0.01 0.00 0.00 0.01 0.01 0.02 0.02 0.02 0.01 0.00 0.00 0.00 0.00 0.00 0.00 0.00 0.00
0.01 0.01 0.02 0.02 0.03 0.04 0.06 0.08 0.11 0.13 0.15 0.15 0.15 0.15 0.13 0.10 0.08 0.06 0.04 0.02 0.01 0.02 0.03 0.03 0.03 0.02 0.01 0.00 0.00 0.01 0.01 0.02 0.01 0.02 0.01 0.00 0.00 0.00 0.00 0.00 0.00 0.00 0.00
0.01 0.02 0.02 0.03 0.04 0.04 0.04 0.05 0.07 0.08 0.10 0.10 0.11 0.11 0.10 0.09 0.08 0.05 0.04 0.02 0.02 0.03 0.03 0.02 0.02 0.02 0.01 0.00 0.00 0.01 0.01 0.02 0.02 0.01 0.01 0.00 0.00 0.00 0.00 0.00 0.00 0.00 0.00
0.01 0.01 0.01 0.02 0.03 0.04 0.04 0.04 0.05 0.06 0.06 0.07 0.07 0.08 0.07 0.06 0.05 0.04 0.05 0.03 0.02 0.03 0.02 0.02 0.01 0.01 0.01 0.01 0.00 0.00 0.00 0.00 0.01 0.01 0.01 0.01 0.01 0.01 0.01 0.00 0.00 0.00 0.00
0.02 0.02 0.02 0.02 0.03 0.03 0.03 0.03 0.04 0.04 0.04 0.05 0.06 0.07 0.07 0.07 0.06 0.06 0.06 0.03 0.02 0.02 0.02 0.02 0.01 0.01 0.01 0.01 0.00 0.00 0.00 0.00 0.00 0.01 0.01 0.01 0.01 0.01 0.02 0.01 0.00 0.00 0.00
0.02 0.02 0.02 0.03 0.04 0.04 0.04 0.03 0.02 0.02 0.02 0.02 0.03 0.03 0.03 0.03 0.04 0.04 0.06 0.04 0.03 0.03 0.03 0.02 0.01 0.01 0.02 0.01 0.01 0.01 0.00 0.00 0.00 0.00 0.01 0.01 0.01 0.01 0.02 0.01 0.01 0.01 0.01
0.02 0.02 0.02 0.02 0.03 0.03 0.04 0.03 0.02 0.01 0.01 0.01 0.02 0.02 0.02 0.02 0.03 0.03 0.03 0.03 0.02 0.03 0.03 0.03 0.02 0.02 0.02 0.02 0.02 0.01 0.01 0.02 0.01 0.01 0.01 0.01 0.01 0.01 0.01 0.01 0.02 0.02 0.02
0.00 0.00 0.01 0.01 0.01 0.02 0.03 0.03 0.04 0.03 0.03 0.02 0.02 0.02 0.02 0.02 0.03 0.03 0.03 0.03 0.03 0.03 0.03 0.03 0.03 0.03 0.03 0.03 0.02 0.02 0.02 0.02 0.02 0.01 0.01 0.01 0.01 0.01 0.02 0.02 0.02 0.02 0.02
0.00 0.00 0.00 0.01 0.01 0.01 0.02 0.02 0.03 0.03 0.04 0.04 0.04 0.04 0.03 0.03 0.03 0.03 0.04 0.04 0.04 0.04 0.04 0.04 0.04 0.03 0.03 0.03 0.03 0.03 0.03 0.02 0.02 0.02 0.01 0.01 0.01 0.01 0.02 0.02 0.03 0.03 0.03
0.00 0.00 0.00 0.00 0.01 0.01 0.01 0.02 0.03 0.03 0.04 0.04 0.03 0.04 0.04 0.04 0.04 0.04 0.03 0.03 0.03 0.04 0.03 0.03 0.03 0.03 0.03 0.03 0.02 0.02 0.02 0.02 0.03 0.02 0.02 0.01 0.02 0.01 0.01 0.01 0.02 0.03 0.03
0.00 0.00 0.00 0.00 0.00 0.01 0.01 0.01 0.02 0.02 0.03 0.03 0.03 0.03 0.04 0.04 0.04 0.04 0.03 0.03 0.03 0.04 0.03 0.02 0.02 0.02 0.03 0.03 0.02 0.02 0.02 0.02 0.02 0.02 0.02 0.02 0.02 0.02 0.02 0.02 0.02 0.02 0.02
0.01 0.01 0.01 0.01 0.01 0.01 0.01 0.01 0.02 0.02 0.03 0.02 0.03 0.04 0.04 0.04 0.05 0.04 0.03 0.03 0.03 0.03 0.02 0.02 0.02 0.02 0.03 0.03 0.03 0.03 0.02 0.02 0.02 0.02 0.02 0.02 0.02 0.02 0.02 0.02 0.02 0.01 0.02
0.01 0.01 0.01 0.01 0.01 0.02 0.02 0.02 0.02 0.03 0.03 0.03 0.03 0.04 0.05 0.05 0.05 0.05 0.04 0.03 0.03 0.02 0.02 0.02 0.02 0.02 0.02 0.03 0.04 0.04 0.03 0.03 0.02 0.03 0.03 0.03 0.02 0.02 0.02 0.03 0.03 0.02 0.02
0.01 0.01 0.01 0.01 0.02 0.02 0.02 0.02 0.02 0.02 0.03 0.02 0.03 0.03 0.04 0.04 0.05 0.06 0.06 0.05 0.04 0.04 0.03 0.03 0.03 0.02 0.03 0.03 0.03 0.03 0.04 0.04 0.03 0.03 0.03 0.03 0.02 0.02 0.02 0.02 0.02 0.02 0.02
0.01 0.01 0.01 0.02 0.02 0.02 0.02 0.02 0.02 0.03 0.03 0.02 0.02 0.03 0.04 0.04 0.05 0.05 0.05 0.05 0.05 0.05 0.05 0.05 0.05 0.04 0.04 0.04 0.04 0.04 0.04 0.04 0.04 0.03 0.03 0.02 0.02 0.02 0.02 0.01 0.01 0.02 0.03
0.00 0.00 0.01 0.01 0.01 0.01 0.02 0.02 0.02 0.02 0.03 0.03 0.03 0.03 0.03 0.04 0.05 0.05 0.05 0.05 0.05 0.05 0.05 0.06 0.06 0.06 0.05 0.05 0.04 0.04 0.03 0.03 0.03 0.03 0.02 0.02 0.02 0.02 0.02 0.01 0.01 0.01 0.02
0.00 0.00 0.00 0.00 0.01 0.01 0.02 0.02 0.02 0.02 0.03 0.03 0.03 0.04 0.04 0.04 0.05 0.05 0.05 0.05 0.05 0.04 0.04 0.05 0.05 0.06 0.05 0.05 0.05 0.04 0.03 0.02 0.02 0.02 0.02 0.02 0.02 0.02 0.02 0.02 0.01 0.01 0.01
0.01 0.00 0.00 0.01 0.01 0.01 0.02 0.03 0.03 0.03 0.03 0.04 0.04 0.04 0.04 0.04 0.04 0.04 0.04 0.04 0.04 0.04 0.04 0.04 0.04 0.04 0.04 0.04 0.03 0.03 0.03 0.03 0.02 0.02 0.02 0.02 0.02 0.02 0.02 0.02 0.01 0.01 0.01
0.01 0.01 0.01 0.01 0.02 0.02 0.02 0.03 0.03 0.03 0.04 0.04 0.04 0.04 0.04 0.04 0.03 0.04 0.04 0.04 0.04 0.04 0.04 0.03 0.03 0.03 0.02 0.02 0.02 0.02 0.02 0.02 0.02 0.02 0.01 0.01 0.02 0.02 0.02 0.02 0.02 0.02 0.02
0.01 0.01 0.01 0.01 0.02 0.02 0.02 0.02 0.03 0.03 0.04 0.04 0.05 0.04 0.04 0.04 0.03 0.03 0.03 0.03 0.03 0.03 0.03 0.03 0.03 0.02 0.01 0.01 0.01 0.02 0.02 0.02 0.02 0.02 0.02 0.01 0.01 0.02 0.02 0.02 0.02 0.02 0.02
0.01 0.01 0.01 0.01 0.01 0.02 0.02 0.02 0.02 0.02 0.02 0.03 0.03 0.04 0.04 0.03 0.03 0.03 0.03 0.02 0.03 0.03 0.03 0.02 0.02 0.02 0.02 0.02 0.02 0.02 0.02 0.03 0.03 0.02 0.02 0.01 0.01 0.01 0.01 0.01 0.02 0.02 0.02
0.01 0.01 0.01 0.01 0.02 0.02 0.02 0.02 0.02 0.02 0.02 0.03 0.03 0.03 0.03 0.03 0.03 0.03 0.02 0.02 0.02 0.03 0.03 0.02 0.03 0.02 0.02 0.02 0.02 0.02 0.02 0.02 0.02 0.02 0.02 0.02 0.01 0.01 0.01 0.02 0.02 0.02 0.02
MSLP
1006.86 1006.69 1006.60 1006.56 1006.58 1006.68 1006.86 1007.15 1007.55 1008.05 1008.65 1009.32 1010.02 1010.73 1011.41 1012.04 1012.63 1013.16 1013.66 1014.14 1014.63 1015.13 1015.64 1016.17 1016.68 1017.18 1017.64 1018.04 1018.39 1018.69 1018.93 1019.14 1019.32 1019.48 1019.61 1019.71 1019.78 1019.81 1019.80 1019.74 1019.64 1019.52 1019.39
1007.19 1006.84 1006.55 1006.32 1006.15 1006.07 1006.10 1006.27 1006.57 1007.01 1007.57 1008.23 1008.95 1009.68 1010.40 1011.08 1011.70 1012.27 1012.80 1013.31 1013.81 1014.32 1014.84 1015.38 1015.93 1016.46 1016.97 1017.44 1017.86 1018.24 1018.58 1018.88 1019.14 1019.37 1019.57 1019.73 1019.84 1019.91 1019.92 1019.88 1019.80 1019.68 1019.53
1007.57 1007.08 1006.62 1006.20 1005.85 1005.59 1005.46 1005.47 1005.66 1006.00 1006.50 1007.12 1007.82 1008.57 1009.31 1010.01 1010.67 1011.28 1011.84 1012.37 1012.89 1013.42 1013.96 1014.53 1015.10 1015.68 1016.24 1016.77 1017.27 1017.73 1018.15 1018.52 1018.86 1019.16 1019.42 1019.64 1019.81 1019.92 1019.97 1019.97 1019.91 1019.81 1019.67
1007.90 1007.31 1006.71 1006.14 1005.62 1005.19 1004.89 1004.75 1004.80 1005.04 1005.45 1006.01 1006.68 1007.41 1008.16 1008.88 1009.57 1010.20 1010.80 1011.36 1011.90 1012.46 1013.03 1013.62 1014.23 1014.84 1015.45 1016.05 1016.61 1017.13 1017.62 1018.06 1018.47 1018.83 1019.15 1019.42 1019.64 1019.81 1019.92 1019.97 1019.96 1019.89 1019.78
1008.09 1007.43 1006.73 1006.04 1005.37 1004.79 1004.34 1004.06 1003.98 1004.10 1004.42 1004.92 1005.54 1006.24 1006.99 1007.72 1008.42 1009.09 1009.71 1010.30 1010.87 1011.45 1012.05 1012.67 1013.31 1013.96 1014.62 1015.26 1015.87 1016.45 1016.99 1017.49 1017.94 1018.36 1018.73 1019.06 1019.35 1019.58 1019.76 1019.88 1019.93 1019.92 1019.85
1008.11 1007.40 1006.64 1005.84 1005.07 1004.36 1003.78 1003.37 1003.17 1003.18 1003.41 1003.83 1004.40 1005.08 1005.80 1006.54 1007.26 1007.94 1008.59 1009.21 1009.82 1010.43 1011.05 1011.70 1012.37 1013.06 1013.74 1014.42 1015.07 1015.69 1016.28 1016.82 1017.32 1017.79 1018.21 1018.60 1018.95 1019.26 1019.52 1019.72 1019.85 1019.91 1019.90
1007.97 1007.23 1006.41 1005.55 1004.68 1003.87 1003.18 1002.66 1002.35 1002.27 1002.41 1002.75 1003.27 1003.91 1004.62 1005.35 1006.08 1006.79 1007.46 1008.12 1008.75 1009.39 1010.04 1010.72 1011.41 1012.12 1012.84 1013.54 1014.23 1014.89 1015.51 1016.10 1016.65 1017.16 1017.65 1018.11 1018.53 1018.91 1019.25 1019.53 1019.75 1019.89 1019.95
1007.74 1006.97 1006.11 1005.19 1004.25 1003.36 1002.57 1001.96 1001.55 1001.37 1001.42 1001.70 1002.16 1002.75 1003.43 1004.16 1004.90 1005.62 1006.32 1007.00 1007.67 1008.34 1009.02 1009.72 1010.44 1011.17 1011.92 1012.65 1013.38 1014.08 1014.75 1015.39 1015.99 1016.57 1017.12 1017.65 1018.14 1018.60 1019.02 1019.38 1019.68 1019.89 1020.01
1007.48 1006.69 1005.80 1004.83 1003.83 1002.87 1002.01 1001.30 1000.80 1000.53 1000.50 1000.69 1001.08 1001.62 1002.27 1002.98 1003.71 1004.44 1005.16 1005.87 1006.56 1007.26 1007.97 1008.70 1009.45 1010.22 1011.00 1011.79 1012.56 1013.32 1014.05 1014.75 1015.43 1016.07 1016.69 1017.29 1017.85 1018.38 1018.87 1019.29 1019.65 1019.93 1020.11
1007.29 1006.48 1005.56 1004.55 1003.51 1002.49 1001.56 1000.77 1000.18 999.82 999.69 999.79 1000.10 1000.57 1001.16 1001.83 1002.54 1003.26 1003.99 1004.72 1005.44 1006.17 1006.92 1007.68 1008.48 1009.29 1010.12 1010.96 1011.80 1012.63 1013.44 1014.22 1014.98 1015.71 1016.40 1017.06 1017.69 1018.27 1018.81 1019.28 1019.68 1020.00 1020.23
1007.20 1006.39 1005.46 1004.43 1003.36 1002.29 1001.30 1000.45 999.77 999.31 999.08 999.07 999.27 999.65 1000.16 1000.76 1001.43 1002.13 1002.85 1003.59 1004.33 1005.09 1005.87 1006.68 1007.52 1008.39 1009.29 1010.20 1011.12 1012.03 1012.93 1013.81 1014.65 1015.46 1016.23 1016.95 1017.63 1018.25 1018.82 1019.32 1019.74 1020.09 1020.34
1007.24 1006.44 1005.52 1004.50 1003.42 1002.33 1001.31 1000.40 999.64 999.08 998.74 998.61 998.68 998.94 999.34 999.85 1000.45 1001.10 1001.79 1002.52 1003.27 1004.05 1004.87 1005.72 1006.61 1007.54 1008.51 1009.50 1010.51 1011.51 1012.51 1013.48 1014.41 1015.30 1016.14 1016.91 1017.62 1018.27 1018.85 1019.36 1019.79 1020.14 1020.42
1007.35 1006.60 1005.72 1004.74 1003.70 1002.63 1001.60 1000.66 999.84 999.19 998.73 998.47 998.41 998.52 998.79 999.18 999.68 1000.25 1000.90 1001.59 1002.33 1003.12 1003.96 1004.85 1005.79 1006.77 1007.80 1008.87 1009.96 1011.05 1012.14 1013.19 1014.21 1015.17 1016.05 1016.87 1017.60 1018.26 1018.84 1019.35 1019.78 1020.14 1020.43
1007.49 1006.82 1006.03 1005.13 1004.16 1003.16 1002.16 1001.22 1000.37 999.66 999.10 998.71 998.50 998.46 998.57 998.83 999.20 999.68 1000.25 1000.89 1001.60 1002.38 1003.22 1004.12 1005.09 1006.11 1007.19 1008.31 1009.46 1010.62 1011.78 1012.90 1013.98 1014.99 1015.92 1016.76 1017.51 1018.17 1018.75 1019.25 1019.68 1020.06 1020.37
1007.57 1007.01 1006.35 1005.58 1004.74 1003.84 1002.93 1002.03 1001.19 1000.44 999.81 999.31 998.97 998.78 998.74 998.85 999.09 999.46 999.93 1000.50 1001.16 1001.90 1002.72 1003.61 1004.58 1005.61 1006.71 1007.85 1009.03 1010.23 1011.41 1012.57 1013.68 1014.72 1015.68 1016.54 1017.30 1017.97 1018.55 1019.06 1019.51 1019.90 1020.24
1007.53 1007.11 1006.61 1006.01 1005.33 1004.59 1003.80 1003.00 1002.21 1001.47 1000.80 1000.23 999.78 999.47 999.30 999.27 999.39 999.63 1000.00 1000.49 1001.08 1001.76 1002.53 1003.39 1004.32 1005.32 1006.39 1007.52 1008.68 1009.87 1011.06 1012.22 1013.33 1014.38 1015.34 1016.21 1016.99 1017.67 1018.27 1018.80 1019.28 1019.71 1020.10
1007.35 1007.08 1006.75 1006.35 1005.86 1005.30 1004.68 1004.00 1003.31 1002.62 1001.96 1001.35 1000.84 1000.45 1000.18 1000.04 1000.05 1000.20 1000.47 1000.87 1001.38 1001.99 1002.69 1003.48 1004.34 1005.28 1006.29 1007.35 1008.46 1009.60 1010.74 1011.87 1012.96 1014.00 1014.95 1015.83 1016.61 1017.31 1017.94 1018.51 1019.03 1019.52 1019.97
1007.03 1006.92 1006.76 1006.54 1006.25 1005.89 1005.44 1004.92 1004.35 1003.75 1003.14 1002.56 1002.04 1001.60 1001.28 1001.08 1001.02 1001.09 1001.29 1001.61 1002.05 1002.58 1003.20 1003.90 1004.67 1005.51 1006.42 1007.39 1008.40 1009.45 1010.52 1011.59 1012.63 1013.63 1014.57 1015.44 1016.24 1016.96 1017.63 1018.25 1018.82 1019.36 1019.88
1006.64 1006.64 1006.63 1006.58 1006.48 1006.29 1006.02 1005.67 1005.24 1004.75 1004.23 1003.72 1003.23 1002.81 1002.49 1002.28 1002.19 1002.22 1002.38 1002.64 1003.01 1003.47 1004.00 1004.60 1005.27 1006.00 1006.79 1007.64 1008.53 1009.47 1010.44 1011.42 1012.39 1013.34 1014.25 1015.11 1015.92 1016.67 1017.37 1018.03 1018.66 1019.26 1019.84
1006.23 1006.32 1006.42 1006.50 1006.54 1006.50 1006.39 1006.19 1005.90 1005.54 1005.13 1004.71 1004.31 1003.96 1003.68 1003.50 1003.43 1003.46 1003.61 1003.85 1004.17 1004.57 1005.02 1005.53 1006.09 1006.70 1007.36 1008.07 1008.84 1009.66 1010.51 1011.39 1012.28 1013.17 1014.04 1014.88 1015.69 1016.46 1017.19 1017.89 1018.56 1019.20 1019.82
1005.89 1006.03 1006.19 1006.34 1006.48 1006.55 1006.56 1006.48 1006.31 1006.08 1005.80 1005.49 1005.20 1004.94 1004.75 1004.64 1004.62 1004.69 1004.85 1005.09 1005.39 1005.74 1006.13 1006.56 1007.02 1007.52 1008.06 1008.65 1009.29 1009.98 1010.73 1011.51 1012.32 1013.14 1013.96 1014.77 1015.56 1016.33 1017.07 1017.79 1018.48 1019.16 1019.80
1005.68 1005.82 1005.99 1006.18 1006.36 1006.49 1006.57 1006.58 1006.52 1006.40 1006.23 1006.04 1005.86 1005.72 1005.63 1005.60 1005.66 1005.79 1005.99 1006.24 1006.54 1006.86 1007.20 1007.57 1007.95 1008.35 1008.79 1009.28 1009.81 1010.40 1011.04 1011.73 1012.46 1013.21 1013.98 1014.75 1015.52 1016.26 1017.00 1017.71 1018.40 1019.07 1019.72
1005.64 1005.76 1005.91 1006.09 1006.27 1006.42 1006.53 1006.59 1006.60 1006.56 1006.48 1006.40 1006.33 1006.29 1006.30 1006.37 1006.50 1006.69 1006.93 1007.20 1007.50 1007.81 1008.12 1008.44 1008.76 1009.09 1009.46 1009.86 1010.32 1010.82 1011.39 1012.00 1012.66 1013.35 1014.07 1014.79 1015.51 1016.22 1016.93 1017.61 1018.28 1018.93 1019.55
1005.79 1005.86 1005.98 1006.12 1006.28 1006.42 1006.54 1006.62 1006.66 1006.67 1006.66 1006.65 1006.67 1006.71 1006.80 1006.94 1007.13 1007.37 1007.64 1007.93 1008.22 1008.52 1008.81 1009.09 1009.37 1009.66 1009.98 1010.33 1010.73 1011.18 1011.69 1012.25 1012.86 1013.50 1014.16 1014.83 1015.51 1016.17 1016.83 1017.47 1018.10 1018.71 1019.29
1006.11 1006.14 1006.22 1006.33 1006.45 1006.57 1006.67 1006.75 1006.80 1006.84 1006.87 1006.90 1006.96 1007.06 1007.20 1007.37 1007.60 1007.85 1008.12 1008.41 1008.69 1008.97 1009.23 1009.49 1009.74 1010.01 1010.30 1010.63 1011.00 1011.43 1011.91 1012.44 1013.01 1013.61 1014.23 1014.85 1015.48 1016.09 1016.69 1017.28 1017.86 1018.42 1018.96
1006.56 1006.59 1006.64 1006.73 1006.82 1006.91 1006.99 1007.06 1007.10 1007.14 1007.18 1007.24 1007.31 1007.42 1007.56 1007.74 1007.95 1008.19 1008.44 1008.70 1008.95 1009.20 1009.43 1009.66 1009.90 1010.15 1010.44 1010.76 1011.13 1011.55 1012.03 1012.54 1013.09 1013.66 1014.25 1014.83 1015.41 1015.97 1016.52 1017.05 1017.58 1018.09 1018.58
Thickness
5663 5661 5659 5658 5656 5654 5652 5651 5650 5649 5647 5645 5644 5641 5638 5636 5634 5632 5629 5627 5625 5624 5622 5621 5619 5618 5615 5613 5612 5610 5608 5606 5604 5604 5604 5606 5608 5609 5610 5611 5612 5613 5614
5659 5657 5655 5653 5651 5649 5648 5647 5646 5644 5643 5641 5639 5636 5634 5632 5630 5627 5625 5623 5621 5619 5618 5617 5615 5613 5610 5608 5606 5604 5602 5601 5599 5598 5597 5598 5600 5601 5602 5603 5604 5605 5606
5653 5651 5649 5647 5645 5644 5643 5642 5640 5639 5637 5636 5634 5632 5630 5628 5625 5623 5621 5619 5617 5616 5614 5612 5611 5608 5605 5603 5601 5599 5597 5596 5594 5592 5591 5591 5592 5593 5594 5595 5596 5597 5598
5646 5644 5643 5641 5641 5640 5638 5636 5635 5633 5632 5631 5629 5627 5625 5623 5621 5619 5616 5614 5613 5611 5610 5608 5607 5604 5602 5599 5597 5595 5593 5590 5587 5586 5584 5584 5584 5585 5586 5586 5587 5588 5589
5639 5638 5637 5636 5634 5633 5632 5631 5629 5627 5626 5625 5623 5622 5620 5618 5617 5614 5612 5610 5608 5606 5604 5603 5603 5602 5600 5597 5595 5591 5588 5584 5581 5579 5578 5577 5577 5577 5578 5578 5578 5579 5580
5632 5631 5630 5629 5627 5626 5625 5624 5622 5620 5619 5618 5617 5615 5614 5614 5613 5611 5608 5605 5603 5601 5599 5598 5597 5596 5595 5594 5592 5590 5587 5582 5578 5575 5573 5573 5573 5572 5571 5571 5570 5570 5570
5625 5624 5622 5621 5620 5619 5618 5616 5615 5613 5611 5610 5610 5608 5607 5607 5607 5606 5603 5600 5597 5595 5594 5592 5592 5591 5589 5587 5586 5585 5582 5580 5579 5575 5572 5570 5569 5569 5566 5564 5563 5563 5563
5616 5615 5614 5613 5612 5611 5610 5608 5607 5606 5604 5603 5603 5601 5601 5601 5601 5600 5598 5594 5591 5590 5588 5587 5585 5585 5584 5581 5579 5577 5575 5573 5573 5572 5570 5569 5567 5565 5562 5561 5559 5556 5556
5608 5607 5606 5605 5604 5603 5601 5600 5599 5598 5597 5596 5596 5595 5593 5594 5594 5593 5591 5587 5585 5584 5583 5581 5580 5579 5578 5576 5573 5569 5567 5566 5566 5565 5564 5563 5562 5559 5557 5553 5550 5549 5548
5600 5598 5597 5597 5596 5594 5593 5592 5591 5590 5589 5589 5588 5588 5587 5587 5587 5586 5584 5581 5579 5577 5576 5575 5575 5573 5572 5570 5566 5563 5560 5559 5558 5557 5556 5555 5554 5552 5550 5548 5546 5543 5542
5591 5590 5589 5588 5587 5586 5584 5583 5582 5581 5581 5579 5579 5580 5579 5579 5579 5578 5577 5575 5573 5571 5569 5568 5567 5567 5566 5564 5561 5558 5557 5555 5552 5549 5547 5546 5545 5543 5542 5541 5540 5538 5536
5582 5581 5579 5578 5578 5577 5575 5574 5573 5572 5571 5570 5569 5569 5569 5570 5570 5569 5569 5569 5567 5564 5563 5562 5561 5560 5559 5557 5554 5553 5551 5548 5544 5541 5539 5537 5536 5535 5534 5533 5532 5531 5530
5573 5571 5569 5569 5567 5566 5564 5563 5562 5561 5561 5560 5560 5560 5560 5560 5560 5561 5561 5561 5559 5557 5557 5556 5554 5553 5550 5548 5547 5545 5542 5539 5536 5533 5531 5529 5528 5527 5525 5524 5523 5522 5521
5563 5561 5560 5558 5557 5555 5554 5553 5552 5551 5551 5551 5551 5551 5551 5550 5550 5550 5551 5551 5550 5549 5547 5547 5546 5544 5541 5539 5537 5535 5533 5531 5528 5526 5523 5521 5520 5518 5516 5515 5514 5512 5511
5552 5551 5549 5548 5546 5545 5543 5542 5542 5542 5542 5542 5543 5543 5542 5542 5544 5543 5542 5541 5541 5540 5538 5535 5533 5531 5529 5528 5526 5525 5523 5522 5520 5517 5515 5513 5511 5509 5508 5506 5505 5504 5502
5540 5539 5538 5536 5535 5534 5532 5532 5532 5532 5533 5534 5535 5535 5535 5536 5536 5535 5534 5533 5532 5530 5528 5526 5524 5522 5521 5519 5517 5515 5513 5512 5511 5509 5507 5505 5503 5501 5500 5498 5496 5495 5494
5530 5528 5527 5525 5524 5523 5522 5521 5521 5522 5523 5523 5524 5525 5525 5526 5526 5526 5524 5523 5522 5520 5517 5516 5514 5513 5512 5510 5508 5507 5505 5503 5502 5500 5499 5497 5495 5494 5492 5490 5488 5487 5486
5519 5518 5517 5515 5514 5513 5511 5511 5510 5510 5511 5511 5513 5514 5515 5516 5516 5516 5514 5512 5509 5508 5507 5506 5505 5504 5503 5501 5500 5498 5496 5495 5493 5491 5490 5489 5487 5485 5484 5482 5481 5479 5478
5508 5507 5506 5504 5504 5503 5502 5501 5500 5500 5500 5500 5501 5503 5504 5505 5506 5505 5504 5502 5500 5498 5497 5496 5495 5495 5494 5493 5491 5490 5488 5486 5485 5483 5482 5481 5479 5478 5476 5475 5473 5472 5470
5499 5499 5498 5496 5494 5493 5492 5491 5490 5490 5490 5490 5491 5492 5493 5493 5493 5493 5492 5491 5490 5489 5488 5487 5486 5485 5485 5484 5482 5481 5479 5478 5477 5475 5474 5473 5472 5471 5469 5467 5466 5464 5463
5491 5490 5490 5487 5485 5484 5483 5482 5482 5481 5481 5481 5482 5483 5483 5483 5483 5483 5482 5481 5480 5480 5479 5478 5477 5476 5475 5474 5474 5472 5471 5471 5470 5469 5468 5467 5465 5464 5462 5460 5459 5457 5456
5482 5480 5479 5478 5477 5476 5474 5474 5473 5473 5473 5473 5473 5473 5474 5473 5473 5473 5473 5473 5473 5472 5472 5471 5470 5469 5468 5467 5467 5465 5464 5464 5463 5462 5461 5460 5459 5457 5455 5454 5452 5450 5450
5474 5472 5470 5469 5468 5467 5466 5465 5464 5465 5464 5465 5464 5465 5465 5465 5465 5465 5465 5466 5465 5464 5464 5463 5463 5462 5461 5460 5460 5459 5459 5458 5457 5456 5454 5453 5452 5451 5449 5447 5446 5444 5443
5466 5464 5462 5461 5459 5458 5458 5458 5457 5457 5457 5457 5457 5458 5458 5458 5458 5458 5458 5458 5458 5457 5457 5456 5456 5455 5454 5453 5453 5453 5452 5452 5451 5449 5448 5447 5446 5445 5443 5441 5439 5438 5437
5458 5456 5455 5454 5453 5452 5451 5450 5450 5450 5450 5450 5450 5450 5451 5451 5451 5451 5451 5451 5450 5450 5450 5449 5449 5448 5448 5447 5447 5446 5446 5445 5444 5443 5441 5440 5439 5438 5436 5435 5433 5432 5431
5449 5449 5448 5447 5446 5445 5444 5444 5444 5444 5444 5444 5444 5444 5444 5444 5444 5444 5444 5443 5443 5442 5442 5442 5441 5441 5441 5440 5440 5439 5439 5438 5437 5436 5435 5433 5432 5431 5429 5428 5427 5426 5425